User: anonymous   Login
Location: Le Petit-Vavre
(46.5081°N, 1.5239°E)
Time: 14:10:34
(UTC+00:00)
Language:

Cosmos 2322 - Orbit

View from above orbital plane
View from above orbital plane
View from above satellite
View from above satellite

Ground track
Ground track

The orbit data is extracted from the following two-line orbital elements,

1 23704U 95058A   21127.21887924 -.00000178  00000-0 -69373-4 0  9997
2 23704  70.9860 307.3095 0006797 107.9004 252.2860 14.13439089316484
Epoch (UTC): 07 May 2021 05:15:11
Eccentricity: 0.0006797
inclination: 70.9860°
perigee height: 843 km
apogee height: 852 km
right ascension of ascending node: 307.3095°
argument of perigee: 107.9004°
revolutions per day: 14.13439089
mean anomaly at epoch: 252.2860°
orbit number at epoch: 31648

The dashed part of the orbit path shows where the satellite is in the earth's shadow,  

DLR